This demonstration page uses our WeatherBlox Daily Observations layout. Learn more.

Left ArrowRight Arrow

38.20091, -84.87328

Hourly Observations for July 22, 2015

Temp ( °F °C ) Dew Point ( °F °C ) Humidity (%) Winds ( mph kmh ) Pressure ( in mb ) Visibility ( mi km ) Precip ( " mm )
12:53 am 00:53 Clear 71 21.7 63 17.2 76 76 Calm 29.88 1012 10 16 0.00 0.00
1:53 am 01:53 Clear 71 21.7 62 16.7 73 73 N 3 6 29.89 1012 10 16 0.00 0.00
2:53 am 02:53 Clear 70 21.1 61 16.1 73 73 N 3 6 29.91 1013 10 16 0.00 0.00
3:53 am 03:53 Clear 69 20.6 60 15.6 73 73 NNE 6 9 29.92 1013 10 16 0.00 0.00
4:53 am 04:53 Clear 68 20 58 14.4 70 70 N 6 9 29.92 1013 10 16 0.00 0.00
5:53 am 05:53 Mostly Clear 67 19.4 58 14.4 73 73 N 3 6 29.93 1014 10 16 0.00 0.00
6:53 am 06:53 Partly Cloudy 66 18.9 57 13.9 73 73 Calm 29.94 1014 10 16 0.00 0.00
7:53 am 07:53 Mostly Sunny 68 20 55 12.8 63 63 NNE 5 7 29.95 1014 10 16 0.00 0.00
8:53 am 08:53 Sunny 70 21.1 55 12.8 59 59 NNE 7 11 29.96 1015 10 16 0.00 0.00
9:53 am 09:53 Sunny 72 22.2 53 11.7 52 52 NE 7 11 29.96 1015 N/A 0.00 0.00
10:53 am 10:53 Sunny 75 23.9 54 12.2 48 48 VRB 5 7 29.97 1015 N/A 0.00 0.00
11:53 am 11:53 Sunny 77 25 55 12.8 47 47 Calm 29.98 1015 10 16 0.00 0.00
12:53 pm 12:53 Sunny 78 25.6 56 13.3 47 47 Calm 29.97 1015 10 16 0.00 0.00
1:53 pm 13:53 Sunny 80 26.7 57 13.9 45 45 NW 5 7 29.96 1015 10 16 0.00 0.00
2:53 pm 14:53 Sunny 82 27.8 59 15 46 46 NW 6 9 29.94 1014 10 16 0.00 0.00
3:53 pm 15:53 Sunny 82 27.8 56 13.3 41 41 NNE 5 7 29.93 1014 10 16 0.00 0.00
4:53 pm 16:53 Sunny 82 27.8 53 11.7 37 37 VRB 3 6 29.91 1013 10 16 0.00 0.00
5:53 pm 17:53 Sunny 83 28.3 54 12.2 37 37 VRB 3 6 29.91 1013 10 16 0.00 0.00
6:53 pm 18:53 Sunny 82 27.8 52 11.1 35 35 N 7 11 29.92 1013 10 16 0.00 0.00
7:53 pm 19:53 Sunny 80 26.7 52 11.1 38 38 NNE 3 6 29.91 1013 10 16 0.00 0.00
8:53 pm 20:53 Sunny 76 24.4 56 13.3 50 50 N 5 7 29.92 1013 10 16 0.00 0.00
9:53 pm 21:53 Clear 70 21.1 60 15.6 71 71 Calm 29.94 1014 10 16 0.00 0.00
10:53 pm 22:53 Clear 70 21.1 59 15 68 68 Calm 29.96 1014 10 16 0.00 0.00
11:53 pm 23:53 Clear 68 20 59 15 73 73 undefined N/A 29.96 1015 10 16 0.00 0.00

Powered by AerisWeather